STARLINK-36826, 67885

Orbit data source: Space-Track

STARLINK-36826, 67885 is a payload satellite owned by SpaceX/Seattle (US) in SSO that was launched on Sat, 21 Feb 2026 UTC via an FALCON 9 launch vehicle from the Air Force Western Test Range (AFWTR). Payload-class satellites include a variety of spacecraft equipped with specific instruments for various scientific and technological missions. These include communications satellites like Starlink; space stations such as the ISS; scientific satellites like the Hubble; Earth observation satellites from companies like Planet Labs, Umbra, and HawkEye 360; GPS; miniature CubeSats for education and research; and military/defense satellites.

Loading next visibility...
Identifier
67885, 2026-035G
Orbit
SSO
Country
Flag of USUS
Related business
Manufacturer
SpaceX/Seattle
Mission
Operational Commercial Communications
Bus & Motor
STARLINK V2MO, Unknown motor
Mass
575 kg wet, ~530 kg dry
Launch date (UTC)
2026-02-21 (4 months ago)
Launch vehicle
FALCON 9
Launch site
Air Force Western Test Range (AFWTR)
Object type
Payload
Rocket body
Debris
Shape & HBR
Box + 2 Pan, 17.7 m
Radar Cross Section
36.964 m², Large (>1 m²)

Expand to show TLE details & history
Last TLE update: 11 hours ago

TLE from 11 hours ago
0 STARLINK-36826
1 67885U 26035G   26171.38105218  .00016288  00000-0  50576-3 0  9996
2 67885  97.2830 104.4979 0001637  81.5322 278.6106 15.33445120 19724
Epoch: 2026-06-20T09:08Z
TLE epoch observation values (Epoch: 2026-06-20T09:08:42.908Z)
Latitude
-0.00004°
Longitude
58.72263°
Altitude
468.487 km
Speed
7.632 km/s
True Right ascension
06h 57m 59s
True Declination
0° 00' 00"
Sunlit
Object was in daylight at epoch
Visualization orbit readout
Latitude
Unknown
Longitude
Unknown
Altitude
Unknown
Speed
Unknown
Apparent Right ascension
Unknown
Apparent Declination
Unknown
Sunlit
N/A
Visualization observer readout
Local Sidereal Time
07:16:37
Azimuth
Unknown
Elevation
Unknown
Doppler factor
Unknown
Orbital elements
Apogee altitude
463.605 km
Perigee altitude
461.366 km
Semi-major axis
6,840.622 km
Eccentricity
0.00016
Inclination
97.283°
RAAN
104.4979°
Arg. of periapsis
81.5322°
True anomaly
278.59205°
Mean anomaly
278.6106°
Eccentric anomaly
278.60133°
Mean motion
3.83619 °/min
Orbital period
93.84 mins
BSTAR
0.00050576
Loading maneuver chart data...
Computing Atmospheric mass density...
Loading historical data...
Loading historical data...
Loading historical data...
Loading historical data...
Loading historical data...
Loading historical data...
Loading historical data...

Documentation

Showing up to 5 results
|